Time,TemperatureF,DewpointF,PressureIn,WindDirection,WindDirectionDegrees,WindSpeedMPH,WindSpeedGustMPH,Humidity,HourlyPrecipIn,Conditions,Clouds,dailyrainin,SolarRadiationWatts/m^2,SoftwareType,DateUTC
2013-10-06 00:05:00,57.9,42.8,30.28,NNE,20,4.0,4.0,57,0.00,,,0.00,0,Wunderground v.1.15,2013-10-05 21:05:00,
2013-10-06 00:15:00,57.8,43.1,30.27,NNE,19,4.0,4.0,58,0.00,,,0.00,0,Wunderground v.1.15,2013-10-05 21:15:00,
2013-10-06 00:25:00,57.8,42.7,30.27,NNE,19,4.0,4.0,57,0.00,,,0.00,0,Wunderground v.1.15,2013-10-05 21:25:00,
2013-10-06 00:35:00,57.8,42.7,30.27,NNE,19,4.0,4.0,57,0.00,,,0.00,0,Wunderground v.1.15,2013-10-05 21:35:00,
2013-10-06 00:45:00,57.9,42.3,30.27,NNE,17,4.0,4.0,56,0.00,,,0.00,0,Wunderground v.1.15,2013-10-05 21:45:00,
2013-10-06 00:55:00,57.9,41.3,30.26,NNE,22,3.0,5.0,54,0.00,,,0.00,0,Wunderground v.1.15,2013-10-05 21:55:00,
2013-10-06 01:05:00,58.0,41.4,30.27,NNE,22,3.0,3.0,54,0.00,,,0.00,0,Wunderground v.1.15,2013-10-05 22:05:00,
2013-10-06 01:15:00,57.7,41.6,30.27,NNE,22,2.0,2.0,55,0.00,,,0.00,0,Wunderground v.1.15,2013-10-05 22:15:00,
2013-10-06 01:25:00,57.7,41.2,30.27,NNE,22,3.0,4.0,54,0.00,,,0.00,0,Wunderground v.1.15,2013-10-05 22:25:00,
2013-10-06 01:35:00,57.6,41.1,30.27,NNE,20,3.0,3.0,54,0.00,,,0.00,0,Wunderground v.1.15,2013-10-05 22:35:00,
2013-10-06 01:45:00,57.5,41.0,30.26,NNE,20,2.0,3.0,54,0.00,,,0.00,0,Wunderground v.1.15,2013-10-05 22:45:00,
2013-10-06 01:55:00,57.4,40.4,30.26,NNE,20,3.0,4.0,53,0.00,,,0.00,0,Wunderground v.1.15,2013-10-05 22:55:00,
2013-10-06 02:05:00,57.4,39.9,30.26,NNE,20,3.0,3.0,52,0.00,,,0.00,0,Wunderground v.1.15,2013-10-05 23:05:00,
2013-10-06 02:15:00,57.4,39.4,30.26,NNE,20,3.0,4.0,51,0.00,,,0.00,0,Wunderground v.1.15,2013-10-05 23:15:00,
2013-10-06 02:25:00,57.4,38.9,30.25,NNE,20,4.0,4.0,50,0.00,,,0.00,0,Wunderground v.1.15,2013-10-05 23:25:00,
2013-10-06 02:35:00,57.3,38.3,30.25,NNE,20,4.0,5.0,49,0.00,,,0.00,0,Wunderground v.1.15,2013-10-05 23:35:00,
2013-10-06 02:45:00,57.2,38.7,30.25,NNE,20,2.0,2.0,50,0.00,,,0.00,0,Wunderground v.1.15,2013-10-05 23:45:00,
2013-10-06 02:55:00,56.8,39.8,30.25,NNE,19,2.0,2.0,53,0.00,,,0.00,0,Wunderground v.1.15,2013-10-05 23:55:00,
2013-10-06 03:05:00,56.8,39.8,30.25,NNE,19,3.0,3.0,53,0.00,,,0.00,0,Wunderground v.1.15,2013-10-06 00:05:00,
2013-10-06 03:15:00,56.7,40.7,30.25,NNE,19,2.0,2.0,55,0.00,,,0.00,0,Wunderground v.1.15,2013-10-06 00:15:00,
2013-10-06 03:25:00,56.4,42.2,30.24,NNE,19,2.0,3.0,59,0.00,,,0.00,0,Wunderground v.1.15,2013-10-06 00:25:00,
2013-10-06 03:35:00,56.0,42.7,30.24,NNE,19,2.0,2.0,61,0.00,,,0.00,0,Wunderground v.1.15,2013-10-06 00:35:00,
2013-10-06 03:45:00,55.7,42.9,30.24,NNE,19,3.0,3.0,62,0.00,,,0.00,0,Wunderground v.1.15,2013-10-06 00:45:00,
2013-10-06 03:55:00,55.7,42.9,30.24,NNE,17,4.0,4.0,62,0.00,,,0.00,0,Wunderground v.1.15,2013-10-06 00:55:00,
2013-10-06 04:05:00,55.9,42.6,30.24,NNE,15,3.0,3.0,61,0.00,,,0.00,0,Wunderground v.1.15,2013-10-06 01:05:00,
2013-10-06 04:15:00,55.8,42.5,30.24,NNE,15,2.0,2.0,61,0.00,,,0.00,0,Wunderground v.1.15,2013-10-06 01:15:00,
2013-10-06 04:25:00,55.6,43.6,30.24,NNE,15,3.0,3.0,64,0.00,,,0.00,0,Wunderground v.1.15,2013-10-06 01:25:00,
2013-10-06 04:35:00,55.5,43.9,30.24,NNE,15,4.0,6.0,65,0.00,,,0.00,0,Wunderground v.1.15,2013-10-06 01:35:00,
2013-10-06 04:45:00,55.5,44.3,30.24,NNE,15,2.0,2.0,66,0.00,,,0.00,0,Wunderground v.1.15,2013-10-06 01:45:00,
2013-10-06 04:55:00,55.5,43.9,30.24,NNE,15,2.0,4.0,65,0.00,,,0.00,0,Wunderground v.1.15,2013-10-06 01:55:00,
2013-10-06 05:05:00,55.7,44.1,30.25,NNE,14,3.0,3.0,65,0.00,,,0.00,0,Wunderground v.1.15,2013-10-06 02:05:00,
2013-10-06 05:15:00,55.9,43.9,30.25,NNE,14,3.0,3.0,64,0.00,,,0.00,0,Wunderground v.1.15,2013-10-06 02:15:00,
2013-10-06 05:25:00,56.1,44.1,30.25,NNE,14,2.0,4.0,64,0.00,,,0.00,0,Wunderground v.1.15,2013-10-06 02:25:00,
2013-10-06 05:35:00,56.3,43.9,30.26,NNE,14,2.0,2.0,63,0.00,,,0.00,0,Wunderground v.1.15,2013-10-06 02:35:00,
2013-10-06 05:45:00,56.5,44.0,30.25,NNE,14,3.0,3.0,63,0.00,,,0.00,0,Wunderground v.1.15,2013-10-06 02:45:00,
2013-10-06 05:55:00,56.5,44.5,30.26,NNE,23,4.0,6.0,64,0.00,,,0.00,0,Wunderground v.1.15,2013-10-06 02:55:00,
2013-10-06 06:05:00,56.5,44.5,30.26,NNE,22,3.0,6.0,64,0.00,,,0.00,0,Wunderground v.1.15,2013-10-06 03:05:00,
2013-10-06 06:15:00,56.5,44.0,30.25,NNE,23,4.0,4.0,63,0.00,,,0.00,0,Wunderground v.1.15,2013-10-06 03:15:00,
2013-10-06 06:25:00,56.4,44.0,30.25,NNE,23,4.0,4.0,63,0.00,,,0.00,0,Wunderground v.1.15,2013-10-06 03:25:00,
2013-10-06 06:35:00,56.3,44.3,30.25,NNE,24,3.0,3.0,64,0.00,,,0.00,0,Wunderground v.1.15,2013-10-06 03:35:00,
2013-10-06 06:45:00,56.1,44.1,30.26,NNE,28,3.0,5.0,64,0.00,,,0.00,0,Wunderground v.1.15,2013-10-06 03:45:00,
2013-10-06 06:55:00,56.3,43.9,30.26,NNE,31,2.0,3.0,63,0.00,,,0.00,0,Wunderground v.1.15,2013-10-06 03:55:00,
2013-10-06 07:05:00,56.4,43.5,30.26,NNE,31,2.0,2.0,62,0.00,,,0.00,0,Wunderground v.1.15,2013-10-06 04:05:00,
2013-10-06 07:15:00,56.4,44.0,30.26,NNE,31,1.0,1.0,63,0.00,,,0.00,0,Wunderground v.1.15,2013-10-06 04:15:00,
2013-10-06 07:25:00,56.3,43.9,30.26,NNE,31,1.0,1.0,63,0.00,,,0.00,5,Wunderground v.1.15,2013-10-06 04:25:00,
2013-10-06 07:35:00,56.4,44.0,30.26,NNE,31,1.0,2.0,63,0.00,,,0.00,12,Wunderground v.1.15,2013-10-06 04:35:00,
2013-10-06 07:45:00,56.4,44.0,30.27,NNE,31,2.0,5.0,63,0.00,,,0.00,19,Wunderground v.1.15,2013-10-06 04:45:00,
2013-10-06 07:55:00,56.4,44.0,30.27,NNE,31,3.0,3.0,63,0.00,,,0.00,28,Wunderground v.1.15,2013-10-06 04:55:00,
2013-10-06 08:05:00,56.6,43.7,30.27,NNE,31,3.0,3.0,62,0.00,,,0.00,42,Wunderground v.1.15,2013-10-06 05:05:00,
2013-10-06 08:15:00,56.9,44.0,30.27,NNE,31,1.0,1.0,62,0.00,,,0.00,98,Wunderground v.1.15,2013-10-06 05:15:00,
2013-10-06 08:25:00,57.4,44.1,30.27,NNE,31,1.0,1.0,61,0.00,,,0.00,153,Wunderground v.1.15,2013-10-06 05:25:00,
2013-10-06 08:35:00,58.3,44.5,30.28,NNE,31,0.0,0.0,60,0.00,,,0.00,218,Wunderground v.1.15,2013-10-06 05:35:00,
2013-10-06 08:45:00,58.5,44.2,30.28,NNE,30,3.0,3.0,59,0.00,,,0.00,149,Wunderground v.1.15,2013-10-06 05:45:00,
2013-10-06 08:55:00,58.6,44.3,30.27,NNE,31,4.0,4.0,59,0.00,,,0.00,318,Wunderground v.1.15,2013-10-06 05:55:00,
2013-10-06 09:05:00,59.1,44.8,30.27,NNE,27,5.0,5.0,59,0.00,,,0.00,355,Wunderground v.1.15,2013-10-06 06:05:00,
2013-10-06 09:15:00,59.4,44.6,30.28,NE,42,2.0,5.0,58,0.00,,,0.00,264,Wunderground v.1.15,2013-10-06 06:15:00,
2013-10-06 09:25:00,59.2,44.4,30.28,NE,42,4.0,6.0,58,0.00,,,0.00,207,Wunderground v.1.15,2013-10-06 06:25:00,
2013-10-06 09:35:00,59.6,44.3,30.28,NE,38,4.0,4.0,57,0.00,,,0.00,186,Wunderground v.1.15,2013-10-06 06:35:00,
2013-10-06 09:45:00,59.8,44.5,30.29,NE,34,3.0,5.0,57,0.00,,,0.00,214,Wunderground v.1.15,2013-10-06 06:45:00,
2013-10-06 09:55:00,60.2,44.4,30.29,NE,54,4.0,6.0,56,0.00,,,0.00,325,Wunderground v.1.15,2013-10-06 06:55:00,
2013-10-06 10:05:00,60.4,44.6,30.29,NE,53,5.0,5.0,56,0.00,,,0.00,480,Wunderground v.1.15,2013-10-06 07:05:00,
2013-10-06 10:15:00,61.0,44.7,30.30,NE,46,4.0,4.0,55,0.00,,,0.00,276,Wunderground v.1.15,2013-10-06 07:15:00,
2013-10-06 10:25:00,60.9,44.1,30.30,NE,40,4.0,7.0,54,0.00,,,0.00,257,Wunderground v.1.15,2013-10-06 07:25:00,
2013-10-06 10:35:00,60.9,44.1,30.29,NE,34,4.0,6.0,54,0.00,,,0.00,330,Wunderground v.1.15,2013-10-06 07:35:00,
2013-10-06 10:45:00,61.0,43.2,30.30,ENE,69,5.0,5.0,52,0.00,,,0.00,420,Wunderground v.1.15,2013-10-06 07:45:00,
2013-10-06 10:55:00,61.6,43.3,30.30,ENE,63,4.0,4.0,51,0.00,,,0.00,490,Wunderground v.1.15,2013-10-06 07:55:00,
2013-10-06 11:05:00,62.0,43.7,30.30,ENE,65,4.0,4.0,51,0.00,,,0.00,575,Wunderground v.1.15,2013-10-06 08:05:00,
2013-10-06 11:15:00,62.1,43.7,30.30,ENE,61,4.0,5.0,51,0.00,,,0.00,373,Wunderground v.1.15,2013-10-06 08:15:00,
2013-10-06 11:25:00,62.4,44.5,30.30,ENE,61,3.0,3.0,52,0.00,,,0.00,469,Wunderground v.1.15,2013-10-06 08:25:00,
2013-10-06 11:35:00,62.7,43.8,30.30,NE,53,3.0,3.0,50,0.00,,,0.00,360,Wunderground v.1.15,2013-10-06 08:35:00,
2013-10-06 11:45:00,62.8,44.9,30.29,NE,53,2.0,2.0,52,0.00,,,0.00,663,Wunderground v.1.15,2013-10-06 08:45:00,
2013-10-06 11:55:00,63.2,44.2,30.29,NE,51,3.0,6.0,50,0.00,,,0.00,686,Wunderground v.1.15,2013-10-06 08:55:00,
2013-10-06 12:05:00,63.5,44.5,30.30,NE,46,4.0,4.0,50,0.00,,,0.00,341,Wunderground v.1.15,2013-10-06 09:05:00,
2013-10-06 12:15:00,63.3,44.3,30.30,NE,46,3.0,3.0,50,0.00,,,0.00,315,Wunderground v.1.15,2013-10-06 09:15:00,
2013-10-06 12:25:00,63.9,45.4,30.30,NE,46,2.0,3.0,51,0.00,,,0.00,434,Wunderground v.1.15,2013-10-06 09:25:00,
2013-10-06 12:35:00,64.1,45.1,30.30,NE,46,2.0,2.0,50,0.00,,,0.00,501,Wunderground v.1.15,2013-10-06 09:35:00,
2013-10-06 12:45:00,64.3,45.3,30.30,NE,46,2.0,8.0,50,0.00,,,0.00,504,Wunderground v.1.15,2013-10-06 09:45:00,
2013-10-06 12:55:00,64.4,44.8,30.30,NE,46,3.0,3.0,49,0.00,,,0.00,629,Wunderground v.1.15,2013-10-06 09:55:00,
2013-10-06 13:05:00,64.5,44.9,30.30,NE,46,2.0,3.0,49,0.00,,,0.00,545,Wunderground v.1.15,2013-10-06 10:05:00,
2013-10-06 13:16:00,65.5,44.7,30.29,NE,53,2.0,4.0,47,0.00,,,0.00,457,Wunderground v.1.15,2013-10-06 10:16:00,
2013-10-06 13:25:00,65.2,44.5,30.29,NE,53,3.0,3.0,47,0.00,,,0.00,589,Wunderground v.1.15,2013-10-06 10:25:00,
2013-10-06 13:35:00,65.3,45.1,30.29,NE,53,2.0,3.0,48,0.00,,,0.00,446,Wunderground v.1.15,2013-10-06 10:35:00,
2013-10-06 13:45:00,65.1,44.4,30.29,NE,53,2.0,4.0,47,0.00,,,0.00,403,Wunderground v.1.15,2013-10-06 10:45:00,
2013-10-06 13:55:00,65.1,44.9,30.28,NE,54,3.0,4.0,48,0.00,,,0.00,571,Wunderground v.1.15,2013-10-06 10:55:00,
2013-10-06 14:05:00,66.1,45.3,30.28,NE,54,2.0,4.0,47,0.00,,,0.00,466,Wunderground v.1.15,2013-10-06 11:05:00,
2013-10-06 14:15:00,65.6,45.4,30.28,ENE,58,4.0,5.0,48,0.00,,,0.00,642,Wunderground v.1.15,2013-10-06 11:15:00,
2013-10-06 14:25:00,64.8,44.6,30.28,NE,53,4.0,4.0,48,0.00,,,0.00,777,Wunderground v.1.15,2013-10-06 11:25:00,
2013-10-06 14:35:00,65.9,45.1,30.27,ENE,61,2.0,2.0,47,0.00,,,0.00,749,Wunderground v.1.15,2013-10-06 11:35:00,
2013-10-06 14:45:00,65.5,44.7,30.27,East,83,4.0,4.0,47,0.00,,,0.00,705,Wunderground v.1.15,2013-10-06 11:45:00,
2013-10-06 14:55:00,65.2,43.9,30.27,East,83,4.0,4.0,46,0.00,,,0.00,675,Wunderground v.1.15,2013-10-06 11:55:00,
2013-10-06 15:05:00,65.8,43.9,30.27,East,84,1.0,2.0,45,0.00,,,0.00,640,Wunderground v.1.15,2013-10-06 12:05:00,
2013-10-06 15:16:00,66.1,44.1,30.26,East,84,3.0,3.0,45,0.00,,,0.00,659,Wunderground v.1.15,2013-10-06 12:16:00,
2013-10-06 15:25:00,66.5,43.9,30.26,East,84,2.0,2.0,44,0.00,,,0.00,594,Wunderground v.1.15,2013-10-06 12:25:00,
2013-10-06 15:35:00,66.9,44.3,30.26,East,82,2.0,4.0,44,0.00,,,0.00,592,Wunderground v.1.15,2013-10-06 12:35:00,
2013-10-06 15:45:00,67.4,44.7,30.26,East,82,1.0,2.0,44,0.00,,,0.00,522,Wunderground v.1.15,2013-10-06 12:45:00,
2013-10-06 15:55:00,67.0,43.8,30.26,ENE,76,3.0,3.0,43,0.00,,,0.00,513,Wunderground v.1.15,2013-10-06 12:55:00,
2013-10-06 16:05:00,66.8,44.2,30.26,ENE,76,3.0,3.0,44,0.00,,,0.00,508,Wunderground v.1.15,2013-10-06 13:05:00,
2013-10-06 16:15:00,66.8,44.8,30.26,ENE,76,2.0,2.0,45,0.00,,,0.00,390,Wunderground v.1.15,2013-10-06 13:15:00,
2013-10-06 16:25:00,66.6,45.2,30.26,ENE,76,2.0,6.0,46,0.00,,,0.00,223,Wunderground v.1.15,2013-10-06 13:25:00,
2013-10-06 16:35:00,66.3,45.5,30.26,ENE,76,2.0,2.0,47,0.00,,,0.00,213,Wunderground v.1.15,2013-10-06 13:35:00,
2013-10-06 16:45:00,66.3,45.5,30.26,ENE,76,1.0,1.0,47,0.00,,,0.00,93,Wunderground v.1.15,2013-10-06 13:45:00,
2013-10-06 16:55:00,65.9,47.8,30.26,ENE,76,1.0,1.0,52,0.00,,,0.00,84,Wunderground v.1.15,2013-10-06 13:55:00,
2013-10-06 17:05:00,65.5,47.4,30.25,ENE,76,1.0,1.0,52,0.00,,,0.00,81,Wunderground v.1.15,2013-10-06 14:05:00,
2013-10-06 17:15:00,65.6,47.5,30.26,ENE,76,0.0,0.0,52,0.00,,,0.00,148,Wunderground v.1.15,2013-10-06 14:15:00,
2013-10-06 17:25:00,65.6,47.5,30.26,ENE,76,1.0,1.0,52,0.00,,,0.00,93,Wunderground v.1.15,2013-10-06 14:25:00,
2013-10-06 17:35:00,65.5,47.4,30.26,ENE,76,2.0,2.0,52,0.00,,,0.00,207,Wunderground v.1.15,2013-10-06 14:35:00,
2013-10-06 17:45:00,65.8,47.2,30.26,ENE,76,2.0,2.0,51,0.00,,,0.00,206,Wunderground v.1.15,2013-10-06 14:45:00,
2013-10-06 17:55:00,65.6,47.5,30.26,ENE,76,1.0,1.0,52,0.00,,,0.00,49,Wunderground v.1.15,2013-10-06 14:55:00,
2013-10-06 18:05:00,65.2,47.6,30.26,ENE,76,1.0,1.0,53,0.00,,,0.00,44,Wunderground v.1.15,2013-10-06 15:05:00,
2013-10-06 18:15:00,65.4,47.8,30.26,ENE,76,1.0,3.0,53,0.00,,,0.00,97,Wunderground v.1.15,2013-10-06 15:15:00,
2013-10-06 18:25:00,65.0,46.4,30.26,ENE,76,2.0,2.0,51,0.00,,,0.00,74,Wunderground v.1.15,2013-10-06 15:25:00,
2013-10-06 18:35:00,64.6,46.1,30.26,ENE,76,2.0,4.0,51,0.00,,,0.00,32,Wunderground v.1.15,2013-10-06 15:35:00,
2013-10-06 18:45:00,63.8,45.8,30.27,ENE,76,4.0,4.0,52,0.00,,,0.00,14,Wunderground v.1.15,2013-10-06 15:45:00,
2013-10-06 18:55:00,63.5,46.1,30.27,ENE,76,3.0,4.0,53,0.00,,,0.00,5,Wunderground v.1.15,2013-10-06 15:55:00,
2013-10-06 19:05:00,63.2,46.3,30.27,ENE,76,2.0,2.0,54,0.00,,,0.00,0,Wunderground v.1.15,2013-10-06 16:05:00,
2013-10-06 19:15:00,63.1,46.2,30.27,ENE,76,3.0,3.0,54,0.00,,,0.00,0,Wunderground v.1.15,2013-10-06 16:15:00,
2013-10-06 19:25:00,62.9,46.0,30.27,ENE,76,2.0,5.0,54,0.00,,,0.00,0,Wunderground v.1.15,2013-10-06 16:25:00,
2013-10-06 19:35:00,62.6,45.7,30.28,ENE,76,2.0,5.0,54,0.00,,,0.00,0,Wunderground v.1.15,2013-10-06 16:35:00,
2013-10-06 19:45:00,62.5,46.1,30.28,ENE,76,3.0,3.0,55,0.00,,,0.00,0,Wunderground v.1.15,2013-10-06 16:45:00,
2013-10-06 19:55:00,62.3,45.9,30.28,ENE,76,3.0,3.0,55,0.00,,,0.00,0,Wunderground v.1.15,2013-10-06 16:55:00,
2013-10-06 20:05:00,62.1,45.7,30.28,ENE,76,3.0,3.0,55,0.00,,,0.00,0,Wunderground v.1.15,2013-10-06 17:05:00,
2013-10-06 20:15:00,62.0,46.1,30.28,ENE,76,2.0,7.0,56,0.00,,,0.00,0,Wunderground v.1.15,2013-10-06 17:15:00,
2013-10-06 20:25:00,61.9,46.0,30.28,ENE,76,3.0,4.0,56,0.00,,,0.00,0,Wunderground v.1.15,2013-10-06 17:25:00,
2013-10-06 20:35:00,61.8,45.9,30.28,ENE,76,1.0,1.0,56,0.00,,,0.00,0,Wunderground v.1.15,2013-10-06 17:35:00,
2013-10-06 20:45:00,61.6,46.2,30.29,ENE,76,1.0,4.0,57,0.00,,,0.00,0,Wunderground v.1.15,2013-10-06 17:45:00,
2013-10-06 20:55:00,61.4,46.0,30.29,ENE,76,3.0,6.0,57,0.00,,,0.00,0,Wunderground v.1.15,2013-10-06 17:55:00,
2013-10-06 21:05:00,61.1,46.2,30.30,ENE,76,4.0,4.0,58,0.00,,,0.00,0,Wunderground v.1.15,2013-10-06 18:05:00,
2013-10-06 21:15:00,60.9,46.0,30.30,ENE,72,4.0,4.0,58,0.00,,,0.00,0,Wunderground v.1.15,2013-10-06 18:15:00,
2013-10-06 21:25:00,60.6,46.2,30.31,ENE,69,5.0,5.0,59,0.00,,,0.00,0,Wunderground v.1.15,2013-10-06 18:25:00,
2013-10-06 21:35:00,60.5,46.1,30.31,ENE,68,4.0,6.0,59,0.00,,,0.00,0,Wunderground v.1.15,2013-10-06 18:35:00,
2013-10-06 21:45:00,60.3,46.4,30.31,ENE,68,4.0,4.0,60,0.00,,,0.00,0,Wunderground v.1.15,2013-10-06 18:45:00,
2013-10-06 21:55:00,60.3,46.4,30.31,ENE,67,3.0,4.0,60,0.00,,,0.00,0,Wunderground v.1.15,2013-10-06 18:55:00,
2013-10-06 22:05:00,60.1,46.6,30.31,ENE,67,4.0,4.0,61,0.00,,,0.00,0,Wunderground v.1.15,2013-10-06 19:05:00,
2013-10-06 22:16:00,60.0,46.5,30.31,ENE,67,3.0,4.0,61,0.00,,,0.00,0,Wunderground v.1.15,2013-10-06 19:16:00,
2013-10-06 22:25:00,59.9,46.4,30.32,ENE,67,3.0,3.0,61,0.00,,,0.00,0,Wunderground v.1.15,2013-10-06 19:25:00,
2013-10-06 22:35:00,59.7,46.7,30.31,ENE,67,3.0,3.0,62,0.00,,,0.00,0,Wunderground v.1.15,2013-10-06 19:35:00,
2013-10-06 22:46:00,59.6,46.6,30.31,ENE,67,3.0,3.0,62,0.00,,,0.00,0,Wunderground v.1.15,2013-10-06 19:46:00,
2013-10-06 22:55:00,59.5,46.5,30.32,ENE,67,3.0,3.0,62,0.00,,,0.00,0,Wunderground v.1.15,2013-10-06 19:55:00,
2013-10-06 23:05:00,59.4,46.4,30.31,ENE,67,3.0,3.0,62,0.00,,,0.00,0,Wunderground v.1.15,2013-10-06 20:05:00,
2013-10-06 23:15:00,59.4,46.8,30.32,ENE,67,1.0,1.0,63,0.00,,,0.00,0,Wunderground v.1.15,2013-10-06 20:15:00,
2013-10-06 23:25:00,59.2,46.6,30.31,ENE,67,2.0,3.0,63,0.00,,,0.00,0,Wunderground v.1.15,2013-10-06 20:25:00,
2013-10-06 23:35:00,59.2,46.6,30.31,ENE,67,2.0,2.0,63,0.00,,,0.00,0,Wunderground v.1.15,2013-10-06 20:35:00,
2013-10-06 23:45:00,59.2,46.2,30.31,ENE,67,3.0,5.0,62,0.00,,,0.00,0,Wunderground v.1.15,2013-10-06 20:45:00,
2013-10-06 23:55:00,59.2,46.2,30.31,ENE,67,2.0,4.0,62,0.00,,,0.00,0,Wunderground v.1.15,2013-10-06 20:55:00,